User: anonymous   Login
Location: Hokitika
(42.7170°S, 170.9670°E)
Time: 23:04:54
(UTC+13:00)
Language:

Cosmos 292 Rocket - Orbit

View from above orbital plane
View from above orbital plane
View from above satellite
View from above satellite

Ground track
Ground track

The orbit data is extracted from the following two-line orbital elements,

1  4071U 69070B   19080.86286287 +.00000075 +00000-0 +20643-4 0  9990
2  4071 074.0497 330.4310 0014233 149.7995 210.3995 14.62769909631772
Epoch (UTC): 21 March 2019 20:42:31
Eccentricity: 0.0014233
inclination: 74.0497°
perigee height: 674 km
apogee height: 694 km
right ascension of ascending node: 330.4310°
argument of perigee: 149.7995°
revolutions per day: 14.62769909
mean anomaly at epoch: 210.3995°
orbit number at epoch: 63177

The dashed part of the orbit path shows where the satellite is in the earth's shadow,  

DLR